User: anonymous   Login
Location: Esp�n
(42.4593°N, 0.2047°W)
Time: 16:16:00
(UTC+00:00)
Language:

CZ-2D R/B - Orbit

View from above orbital plane
View from above orbital plane
View from above satellite
View from above satellite

Ground track
Ground track

The orbit data is extracted from the following two-line orbital elements,

1 37932U 11068C   20224.86739292 -.00000011 +00000-0 +14550-4 0  9998
2 37932 098.6577 160.0635 0036201 305.6141 121.1228 14.22041005452929
Epoch (UTC): 11 August 2020 20:49:02
Eccentricity: 0.0036201
inclination: 98.6577°
perigee height: 792 km
apogee height: 844 km
right ascension of ascending node: 160.0635°
argument of perigee: 305.6141°
revolutions per day: 14.22041005
mean anomaly at epoch: 121.1228°
orbit number at epoch: 45292

The dashed part of the orbit path shows where the satellite is in the earth's shadow,  

DLR